EW7001 Weather Reports


Display with metric or nautical units.
time (UTC)temp
F
wind
direction
speed
MPH
gust
MPH
rain 1hr
in
rain 24hr
in
rain mn
in
humidity
%
barometer
mb
20260502194541 71 339 8.0 15.0 0.06 0.99 0.06 21 1011.3
20260502193039 70 311 9.0 22.0 0.05 0.98 0.05 20 1011.6
20260502191531 69 6 6.0 15.0 0.04 0.97 0.04 19 1011.6
20260502190035 69 325 6.0 16.0 0.00 0.93 0.00 19 1011.8
20260502184522 69 319 4.0 14.0 0.00 1.20 0.00 18 1011.9
20260502183017 69 323 6.0 15.0 0.00 1.20 0.00 18 1012.1
20260502181511 68 302 7.0 18.0 0.00 1.20 0.00 18 1012.3
20260502163046 65 240 7.0 16.0 0.00 1.37 1.31 21 1013.2
20260502161534 65 278 5.0 11.0 0.00 1.37 1.31 21 1013.3
20260502151548 62 237 5.0 12.0 0.00 1.38 1.31 26 1013.5
20260502123003 37 228 7.0 11.0 0.01 1.17 1.10 69 1014.2
20260502121502 35 207 7.0 10.0 0.01 1.17 1.10 72 1014.2
20260502120104 35 196 8.0 12.0 0.01 1.17 1.10 72 1014.2
20260502114530 36 201 9.0 13.0 0.00 1.15 1.09 69 1014.4
20260502113035 36 196 7.0 11.0 0.01 1.15 1.09 71 1014.5
20260502111525 36 188 7.0 10.0 0.01 1.15 1.09 70 1014.7
20260502110033 36 207 7.0 10.0 0.01 1.15 1.09 72 1014.8
20260502104520 35 196 7.0 10.0 0.01 1.15 1.09 73 1014.9
20260502103018 36 209 6.0 9.0 0.00 1.14 1.08 71 1015.0
20260502101514 37 193 7.0 11.0 0.00 1.14 1.08 69 1015.1
20260502091509 38 184 7.0 10.0 0.02 1.14 1.08 67 1015.3
20260502070111 41 187 8.0 12.0 0.01 1.11 1.04 57 1016.8
20260502064618 41 178 8.0 12.0 0.00 1.10 1.03 57 1016.9
20260502063057 42 186 9.0 14.0 0.00 1.10 1.03 55 1016.8
20260502061553 42 193 5.0 10.0 0.00 1.10 1.03 57 1016.9
20260502060053 40 191 3.0 7.0 0.00 1.10 1.03 61 1017.1
20260502054556 38 178 2.0 4.0 0.00 1.10 1.03 67 1017.2
20260502053052 38 89 0.0 5.0 0.00 1.10 1.03 65 1017.1
20260502051548 37 98 2.0 4.0 0.00 1.10 1.03 67 1017.1
20260502050047 36 1 0.0 2.0 0.00 1.10 1.03 70 1017.2
20260502044547 35 46 0.0 2.0 0.00 1.10 1.03 71 1017.2
20260502043047 34 102 0.0 2.0 0.00 1.10 1.03 72 1017.1
20260502041553 34 63 1.0 2.0 0.00 1.10 1.03 70 1017.2
20260502040038 35 117 0.0 2.0 0.00 1.10 1.03 68 1017.0
20260502034534 36 81 1.0 2.0 0.00 1.10 1.03 66 1017.1
20260502033031 37 89 0.0 2.0 0.00 1.10 1.03 62 1017.0
20260502031523 39 124 0.0 2.0 0.00 1.10 1.03 57 1016.9
20260502030018 42 117 1.0 3.0 0.00 1.10 1.03 51 1016.8
20260502024518 45 178 1.0 3.0 0.00 1.10 1.03 48 1016.5
20260502023010 48 113 1.0 3.0 0.00 1.10 1.03 43 1016.3
20260502021503 50 105 2.0 3.0 0.00 1.10 1.03 40 1016.1
20260502014554 55 46 2.0 4.0 0.00 1.10 1.03 36 1015.8
20260502013056 56 35 1.0 5.0 0.00 1.10 1.03 35 1015.7
20260502011549 58 25 5.0 10.0 0.00 1.10 1.03 31 1015.7
20260502010047 59 15 4.0 9.0 0.00 1.10 1.03 33 1015.6
20260502004547 59 37 5.0 10.0 0.00 1.11 1.03 32 1015.5
20260502003049 60 20 6.0 11.0 0.01 1.11 1.03 32 1015.5
20260502001553 60 4 5.0 13.0 0.01 1.11 1.03 32 1015.6
20260502000101 60 13 4.0 11.0 0.01 1.11 1.03 32 1015.4
20260501234543 60 348 6.0 12.0 0.03 1.13 1.03 32 1015.4
20260501233041 60 21 6.0 11.0 0.02 1.12 1.02 32 1015.4
20260501231537 61 342 4.0 11.0 0.04 1.12 1.02 31 1015.4
20260501230033 60 350 5.0 12.0 0.06 1.12 1.02 32 1015.3
20260501224539 61 329 7.0 13.0 0.11 1.15 1.00 30 1015.2
20260501223023 62 351 6.0 14.0 0.13 1.15 1.00 32 1015.2
20260501221518 61 13 4.0 12.0 0.12 1.13 0.98 31 1015.1
20260501220022 61 346 6.0 14.0 0.13 1.12 0.96 31 1015.2
20260501214515 62 335 7.0 15.0 0.11 1.12 0.89 30 1015.4
20260501213005 61 44 4.0 12.0 0.14 1.11 0.87 30 1015.3
20260501211502 62 25 6.0 15.0 0.14 1.08 0.84 29 1015.5
20260501210059 62 351 4.0 16.0 0.19 1.07 0.83 27 1015.8
20260501204555 62 349 6.0 16.0 0.19 1.04 0.78 27 1015.7
20260501203050 62 331 6.0 16.0 0.20 0.99 0.73 28 1015.7
20260501201550 62 320 8.0 17.0 0.28 0.96 0.70 29 1015.9
20260501200047 61 351 7.0 15.0 0.23 0.90 0.64 28 1015.9